Flag for Luxembourg Weather past 2 weeks in Luxembourg, Luxembourg

Now
43 °F

Partly cloudy.


Feels Like: 39 °F
Forecast: 42 / 52 °F
Wind: 7 mph from Southwest

Location: Luxembourg Airport

Current Time: Mar 30, 2015 at 10:31:55 PM

Latest Report: Mar 30, 2015 at 9:50 PM


Visibility: N/A

Pressure: 29.89 "Hg

Humidity: 71%

Dew point: 34 °F

Location of LuxembourgLocation

Historic Weather in Luxembourg — Graph

°F

Luxembourg temperature yesterday

Maximum temperature yesterday: 50 °F (at 4:20 PM)
Minimum temperature yesterday: 46 °F (at 7:50 AM)
Average temperature yesterday: 49 °F

Past Weeks' High & Low Weather Summary

 TemperatureHumidityPressure
High64 °F (Mar 18, 2:20 PM)100% (Mar 20, 4:50 AM)30.30 "Hg (Mar 20, 4:50 AM)
Low28 °F (Mar 23, 6:50 AM)30% (Mar 18, 4:50 PM)29.50 "Hg (Mar 29, 7:50 PM)
Average44 °F78%30.00 "Hg
* Reported Mar 15 8:20 PM — Mar 30 9:20 PM, Luxembourg, Weather by CustomWeather, © 2015

Note: Actual official high and low records may vary slightly from our data, if they occured in-between our weather recording intervals... More about our weather records

Advertising

Luxembourg weather history for previous 24 hours

 ConditionsComfort  
Time TempWeatherWind HumidityBarometerVisibility
9:20 PM
Mon, Mar 30
45 °FPassing clouds.7 mph66%29.89 "HgN/A
8:50 PM45 °FSunny.8 mph61%29.89 "Hg10 mi
8:20 PM45 °FSunny.10 mph61%29.89 "Hg10 mi
7:50 PM45 °FPassing clouds.12 mph57%29.92 "HgN/A
7:20 PM46 °FPassing clouds.15 mph53%29.89 "HgN/A
6:50 PM46 °FSunny.15 mph50%29.89 "Hg10 mi
6:20 PM50 °FPassing clouds.14 mph43%29.86 "HgN/A
5:50 PM48 °FPassing clouds.16 mph46%29.86 "HgN/A
5:20 PM52 °FPassing clouds.15 mph44%29.86 "HgN/A
4:50 PM50 °FPassing clouds.21 mph40%29.83 "HgN/A
4:20 PM48 °FPassing clouds.16 mph50%29.86 "HgN/A
3:50 PM48 °FPassing clouds.20 mph46%29.83 "HgN/A
3:20 PM48 °FScattered clouds.18 mph50%29.83 "HgN/A
2:50 PM48 °FScattered clouds.20 mph50%29.80 "HgN/A
2:20 PM48 °FScattered clouds.20 mph50%29.80 "HgN/A
1:50 PM46 °FScattered clouds.17 mph57%29.77 "HgN/A
1:20 PM46 °FScattered clouds.16 mph62%29.77 "HgN/A
12:50 PM45 °FScattered clouds.15 mph66%29.77 "HgN/A
12:20 PM43 °FScattered clouds.17 mph76%29.74 "HgN/A
11:50 AM45 °FPassing clouds.16 mph71%29.74 "HgN/A
11:20 AM41 °FPartly sunny.17 mph81%29.74 "HgN/A
10:50 AM41 °FSprinkles. Partly sunny.22 mph87%29.71 "Hg5 mi
10:20 AM45 °FScattered clouds.18 mph76%29.68 "HgN/A
9:50 AM45 °FScattered clouds.20 mph71%29.65 "HgN/A
9:20 AM45 °FPassing clouds.20 mph76%29.65 "HgN/A
8:50 AM43 °FPassing clouds.18 mph87%29.62 "HgN/A
8:20 AM43 °FPassing clouds.14 mph87%29.62 "HgN/A
7:50 AM41 °FPassing clouds.16 mph93%29.59 "HgN/A
7:20 AM41 °FPassing clouds.14 mph93%29.59 "HgN/A
6:50 AM41 °FPassing clouds.15 mph93%29.56 "HgN/A
6:20 AM41 °FPassing clouds.16 mph93%29.56 "Hg4 mi
5:50 AM41 °FPassing clouds.10 mph93%29.56 "HgN/A
5:20 AM41 °FSprinkles. Passing clouds.14 mph93%29.53 "Hg5 mi
4:50 AM45 °FQuite cool.17 mph87%29.53 "Hg6 mi
4:20 AM45 °FQuite cool.18 mph87%29.53 "HgN/A
3:50 AM45 °FQuite cool.21 mph87%29.53 "HgN/A
3:20 AM46 °FCool.23 mph82%29.53 "HgN/A
2:50 AM46 °FCool.18 mph82%29.53 "HgN/A
2:20 AM46 °FCool.20 mph87%29.53 "HgN/A
1:50 AM46 °FSprinkles. Passing clouds.13 mph93%29.53 "Hg4 mi
1:20 AM46 °FPartly cloudy.20 mph87%29.53 "Hg4 mi
12:50 AM48 °FOvercast.21 mph82%29.53 "HgN/A
12:20 AM48 °FMostly cloudy.21 mph82%29.53 "HgN/A
11:50 PM
Sun, Mar 29
50 °FPassing clouds.23 mph76%29.53 "HgN/A
10:50 PM50 °FPartly cloudy.29 mph82%29.50 "HgN/A
10:20 PM50 °FPassing clouds.25 mph82%29.50 "HgN/A
Weather by CustomWeather, © 2015

See weather overviewHow to use our weather pages